Tracking 32422 objects as of 7-Dec-2025
HD Live streaming from Space Station
objects crossing your sky now

STARLINK-11737

Track STARLINK-11737 now!
10-day predictions
STARLINK-11737 is classified as:


NORAD ID: 64066
Int'l Code: 2025-107C
Perigee: 361.8 km
Apogee: 365.1 km
Inclination: 43.0 °
Period: 91.7 minutes
Semi major axis: 6734 km
RCS: Unknown
Launch date: May 21, 2025
Source: United States (US)
Launch site: AIR FORCE EASTERN TEST RANGE (AFETR)
Your satellite tracking list
Your tracking list is empty




NASA's NSSDC Master Catalog

Two Line Element Set (TLE):
1 64066U 25107C   25341.27646112  .00166423  00000-0  12719-2 0  9995
2 64066  42.9999 295.2893 0002452 241.1659 118.8963 15.70891112 32764
Source of the keplerian elements: AFSPC